THEMIS D

Last updated on Sun Apr 12 2026 00:02:44 GMT+0000 (Coordinated Universal Time)

1 30797U 07004D 26101.46911509 .00000020 00000+0 00000+0 0 9992 2 30797 7.0587 83.1620 8343470 221.2595 112.2057 0.87834322 40492
UTC large
Height (km)
Speed (km/s)
/
Latitude / Longitude
Inclination (degrees)
Orbital Period (minutes)
Azimuth
Elevation
Range (km)
Doppler Factor

Next 0 passes for location: London (51.5072 / 0.1276)

Sorry there are no passes over London.
THEMIS D